FW6327 Weather Reports


Display with metric or nautical units.
time (UTC)temp
F
wind
direction
speed
MPH
gust
MPH
rain 1hr
in
rain 24hr
in
rain mn
in
humidity
%
barometer
mb
20260903041551 48 141 0.0 0.0 0.00 0.00 0.00 90 1022.6
20260903040140 48 141 0.0 0.0 0.00 0.00 0.00 90 1022.5
20260903034537 49 141 0.0 0.0 0.00 0.00 0.00 90 1022.4
20260903033032 50 141 0.0 0.0 0.00 0.00 0.00 90 1022.4
20260903031526 51 141 0.0 0.0 0.00 0.00 0.00 90 1022.2
20260903030023 52 141 0.0 0.0 0.00 0.00 0.00 90 1022.4
20260903024520 53 141 0.0 0.0 0.00 0.00 0.00 90 1022.4
20260903023018 53 141 0.0 0.0 0.00 0.00 0.00 90 1022.5
20260903021516 54 141 0.0 0.0 0.00 0.00 0.00 90 1022.6
20260903020014 54 141 0.0 2.0 0.00 0.00 0.00 90 1022.6
20260903014514 54 141 0.0 2.0 0.00 0.00 0.00 90 1022.6
20260903013010 54 141 0.0 3.0 0.00 0.00 0.00 90 1022.6
20260903011509 54 112 0.0 2.0 0.00 0.00 0.00 90 1022.5
20260903010008 54 109 0.0 3.0 0.00 0.00 0.00 90 1022.6
20260903004516 54 109 0.0 1.0 0.00 0.00 0.00 90 1022.6
20260903003008 54 109 1.0 4.0 0.00 0.00 0.00 90 1022.4
20260903001610 53 11 2.0 5.0 0.00 0.00 0.00 89 1022.5
20260903000103 54 350 0.0 3.0 0.00 0.00 0.00 89 1022.4
20260902234557 54 273 0.0 3.0 0.00 0.00 0.00 88 1022.5
20260902233056 55 273 1.0 2.0 0.00 0.00 0.00 88 1022.5
20260902231552 56 273 1.0 2.0 0.00 0.00 0.00 88 1022.3
20260902230050 57 273 0.0 3.0 0.00 0.00 0.00 87 1022.4
20260902224548 57 273 0.0 2.0 0.00 0.00 0.00 87 1022.2
20260902223046 57 273 0.0 2.0 0.00 0.00 0.00 87 1022.1
20260902221544 57 273 0.0 2.0 0.00 0.00 0.00 87 1022.2
20260902220046 59 273 0.0 1.0 0.00 0.00 0.00 85 1022.2
20260902214542 60 273 0.0 1.0 0.00 0.00 0.00 84 1022.1
20260902213038 61 273 0.0 0.0 0.00 0.00 0.00 83 1022.1
20260902211538 62 273 0.0 1.0 0.00 0.00 0.00 81 1022.1
20260902210104 64 273 0.0 2.0 0.00 0.00 0.00 77 1022.1
20260902204540 68 273 0.0 3.0 0.00 0.00 0.00 72 1022.1
20260902203030 67 355 1.0 5.0 0.00 0.00 0.00 66 1022.0
20260902201530 68 51 1.0 5.0 0.00 0.00 0.00 67 1022.1
20260902200025 68 207 3.0 10.0 0.00 0.00 0.00 68 1022.1
20260902194525 68 167 5.0 11.0 0.00 0.00 0.00 67 1021.9
20260902193022 68 109 4.0 12.0 0.00 0.00 0.00 69 1021.9
20260902191520 68 223 4.0 13.0 0.00 0.00 0.00 68 1021.8
20260902190019 68 198 4.0 10.0 0.00 0.00 0.00 67 1021.6
20260902184615 69 207 4.0 12.0 0.00 0.00 0.00 67 1021.5
20260902183014 68 184 3.0 10.0 0.00 0.00 0.00 66 1021.6
20260902181512 68 211 7.0 10.0 0.00 0.00 0.00 68 1021.5
20260902180010 67 233 5.0 12.0 0.00 0.00 0.00 68 1021.7
20260902174505 69 22 8.0 12.0 0.00 0.00 0.00 69 1021.7
20260902173005 68 121 2.0 12.0 0.00 0.00 0.00 69 1021.6
20260902171502 69 25 2.0 9.0 0.00 0.00 0.00 67 1021.7
20260902170106 68 189 6.0 14.0 0.00 0.00 0.00 70 1021.7
20260902164557 68 167 5.0 11.0 0.00 0.00 0.00 70 1021.6
20260902163056 68 138 8.0 12.0 0.00 0.00 0.00 68 1021.6
20260902161555 69 49 3.0 10.0 0.00 0.00 0.00 65 1021.7
20260902160054 69 190 1.0 7.0 0.00 0.00 0.00 59 1021.7
20260902154549 69 146 2.0 7.0 0.00 0.00 0.00 54 1021.9
20260902153045 69 135 4.0 7.0 0.00 0.00 0.00 54 1021.9
20260902151546 69 46 2.0 6.0 0.00 0.00 0.00 62 1021.9
20260902150037 68 168 2.0 7.0 0.00 0.00 0.00 67 1021.9
20260902144537 67 170 1.0 6.0 0.00 0.00 0.00 68 1022.1
20260902143033 66 176 1.0 5.0 0.00 0.00 0.00 70 1022.1
20260902141525 65 249 3.0 7.0 0.00 0.00 0.00 72 1022.2
20260902140023 65 171 1.0 4.0 0.00 0.00 0.00 76 1022.2
20260902134518 63 173 3.0 6.0 0.00 0.00 0.00 77 1022.4
20260902133015 62 199 2.0 5.0 0.00 0.00 0.00 79 1022.5
20260902131511 62 43 2.0 4.0 0.00 0.00 0.00 80 1022.7
20260902130006 61 74 1.0 5.0 0.00 0.00 0.00 82 1022.7
20260902124502 59 116 0.0 0.0 0.00 0.00 0.00 86 1022.8
20260902123057 57 117 0.0 0.0 0.00 0.00 0.00 89 1022.9
20260902121551 54 117 1.0 3.0 0.00 0.00 0.00 91 1023.1
20260902120048 52 127 0.0 3.0 0.00 0.00 0.00 93 1023.2
20260902114545 51 123 1.0 3.0 0.00 0.00 0.00 94 1023.2
20260902113038 49 123 0.0 2.0 0.00 0.00 0.00 94 1023.3
20260902111532 47 123 0.0 2.0 0.00 0.00 0.00 94 1023.4
20260902110030 46 122 0.0 1.0 0.00 0.00 0.00 94 1023.2
20260902104538 44 122 0.0 0.0 0.00 0.00 0.00 94 1023.2
20260902103026 42 119 0.0 0.0 0.00 0.00 0.00 94 1023.3
20260902101531 41 119 0.0 0.0 0.00 0.00 0.00 94 1023.2
20260902100020 41 119 0.0 1.0 0.00 0.00 0.00 93 1023.0
20260902094516 41 119 0.0 2.0 0.00 0.00 0.00 93 1022.6
20260902093014 40 119 0.0 1.0 0.00 0.00 0.00 93 1022.5
20260902091511 40 119 0.0 0.0 0.00 0.00 0.00 93 1022.4
20260902090008 41 119 0.0 2.0 0.00 0.00 0.00 93 1022.2
20260902084505 41 119 0.0 0.0 0.00 0.00 0.00 93 1022.1
20260902083001 41 119 0.0 0.0 0.00 0.00 0.00 93 1022.0
20260902081558 41 119 0.0 0.0 0.00 0.00 0.00 93 1021.8
20260902080111 42 119 0.0 0.0 0.00 0.00 0.00 93 1021.9
20260902074552 42 119 0.0 1.0 0.00 0.00 0.00 93 1021.8
20260902073049 43 119 0.0 2.0 0.00 0.00 0.00 93 1021.8
20260902071544 43 119 0.0 2.0 0.00 0.00 0.00 93 1021.7
20260902070042 44 100 1.0 2.0 0.00 0.00 0.00 93 1021.7
20260902064547 44 97 0.0 0.0 0.00 0.00 0.00 93 1021.6
20260902063043 45 97 0.0 0.0 0.00 0.00 0.00 93 1021.4
20260902061547 45 97 0.0 0.0 0.00 0.00 0.00 93 1021.4
20260902060031 45 97 0.0 0.0 0.00 0.00 0.00 93 1021.4
20260902054528 45 97 0.0 0.0 0.00 0.00 0.00 93 1021.4
20260902053024 45 97 0.0 0.0 0.00 0.00 0.00 93 1021.1
20260902051520 46 97 0.0 0.0 0.00 0.00 0.00 93 1021.1
20260902050017 47 97 0.0 2.0 0.00 0.00 0.00 93 1021.0
20260902044514 47 97 0.0 0.0 0.00 0.00 0.00 93 1021.0
20260902043010 47 97 0.0 0.0 0.00 0.00 0.00 93 1020.9